STARLINK-2296 (47998 NORAD) Tracking and Keplerian Element Data

This shows tracking and keplerian element data for the satellite.

Feedback or suggestion? Click here.




ElementValue
Catalog47998
NameSTARLINK-2296
Epoch Orbit198
Epoch Day173.91668981
Epoch Year2021
RAAN114.2981
Inclination53.0456
Eccentricity0.0002291
Argument of Perigee23.4514
Mean Anonmoly125.2601
Mean Motion15.73205024
Decay Rate0.00012588
L11 47998U 21024X 21173.91668981 .00012588 00000-0 93942-4 0 9993
L22 47998 53.0456 114.2981 0002291 23.4514 125.2601 15.73205024 1985

Live tracking and technical data element details for STARLINK-2296 (NORAD 47998). STARLINK-2296 can be tracked NOW for your location showing map with azimuth and elevation plus other details from your city location.

Track the satellite on the map from your city or location and see movement details for azimuth, elevation, latitude, longitude, range, height, and movement on the map or in text.







IsCatalogInMostPopularTable: catalog: 47998, numindb: 40
Update: records affected: 1



GetName: 47998 STARLINK-2296

Hit Count: updated at: Thu, 24 Jun 2021 04:17:30 GMT